Weather History for Columbus, NE

Change the Weather History Date:

Monday, January 6, 2014

  Actual Average Record
Temperature  
Mean Temperature 0 °F -  
Max Temperature 8 °F 27 °F 57 °F (1961)
Min Temperature -9 °F 8 °F -16 °F (1968)
Degree Days  
Heating Degree Days 66    
Moisture  
Dew Point -19 °F    
Average Humidity 47    
Maximum Humidity 72    
Minimum Humidity 34    
Precipitation  
Precipitation 0.00 in - - ()
Sea Level Pressure  
Sea Level Pressure 30.38 in    
Wind  
Wind Speed 12 mph (WNW)    
Max Wind Speed 23 mph    
Max Gust Speed 29 mph    
Visibility 10 miles    
Events      
Averages and records for this station are not official NWS values.
T = Trace of Precipitation, MM = Missing Value Source: NWS Daily Summary

Daily Weather History Graph

Daily Weather History Graph

Search for Another Location

Airport:

Trip Planner

Search our weather history database for the weather conditions in past years. The results will help you decide how hot, cold, wet, or windy it might be!

Date:

Astronomy

Jan. 06, 2014 Rise Set
Actual Time 7:55 AM CST 5:15 PM CST
Civil Twilight 7:24 AM CST 5:46 PM CST
Nautical Twilight 6:50 AM CST 6:20 PM CST
Astronomical Twilight 6:16 AM CST 6:54 PM CST
Moon 11:07 AM CST (1/6) 11:54 PM CST (1/6)
Length of Visible Light 10h 21m
Length of Day
9h 19m
Waxing Crescent, 35% of the Moon is Illuminated
Jan 6
Waxing Crescent
Jan 7
First Quarter
Jan 15
Full
Jan 23
Last Quarter
Jan 30
New

Hourly Weather History & Observations

Time (CST) Temp. Windchill Dew Point Humidity Pressure Visibility Wind Dir Wind Speed Gust Speed Precip Events Conditions
12:15 AM -7.6 °F -29.1 °F -25.6 °F 41% 30.47 in 10.0 mi NW 15.0 mph 20.7 mph N/A   Clear
12:35 AM -7.6 °F -29.8 °F -23.8 °F 45% 30.46 in 10.0 mi NW 16.1 mph - N/A   Clear
12:55 AM -7.6 °F -31.1 °F -23.8 °F 45% 30.45 in 10.0 mi NW 18.4 mph 23.0 mph N/A   Clear
1:15 AM -9.4 °F -33.5 °F -25.6 °F 45% 30.45 in 10.0 mi NW 18.4 mph - N/A   Clear
1:35 AM -9.4 °F -33.5 °F -23.8 °F 49% 30.45 in 10.0 mi NW 18.4 mph - N/A   Clear
1:55 AM -9.4 °F -29.8 °F -23.8 °F 49% 30.45 in 10.0 mi WNW 12.7 mph - N/A   Clear
2:15 AM -9.4 °F -31.4 °F -23.8 °F 49% 30.45 in 10.0 mi WNW 15.0 mph - N/A   Clear
2:35 AM -9.4 °F -31.4 °F -23.8 °F 49% 30.45 in 10.0 mi WNW 15.0 mph - N/A   Clear
2:55 AM -9.4 °F -28.9 °F -23.8 °F 49% 30.45 in 10.0 mi WNW 11.5 mph - N/A   Clear
3:15 AM -9.4 °F -29.8 °F -25.6 °F 45% 30.45 in 10.0 mi WNW 12.7 mph - N/A   Clear
3:35 AM -9.4 °F -25.6 °F -25.6 °F 45% 30.44 in 10.0 mi WNW 8.1 mph - N/A   Clear
3:55 AM -9.4 °F -27.9 °F -25.6 °F 45% 30.45 in 10.0 mi WNW 10.4 mph - N/A   Clear
4:15 AM -9.4 °F -28.9 °F -25.6 °F 45% 30.44 in 10.0 mi WNW 11.5 mph - N/A   Clear
4:35 AM -9.4 °F -27.9 °F -25.6 °F 45% 30.43 in 10.0 mi WNW 10.4 mph - N/A   Clear
4:55 AM -9.4 °F -27.9 °F -25.6 °F 45% 30.43 in 10.0 mi WNW 10.4 mph - N/A   Clear
5:15 AM -9.4 °F -26.8 °F -23.8 °F 49% 30.43 in 10.0 mi WNW 9.2 mph - N/A   Clear
5:35 AM -9.4 °F -25.6 °F -25.6 °F 45% 30.43 in 10.0 mi West 8.1 mph - N/A   Clear
5:55 AM -9.4 °F -26.8 °F -23.8 °F 49% 30.43 in 10.0 mi West 9.2 mph - N/A   Clear
6:15 AM -9.4 °F -26.8 °F -23.8 °F 49% 30.42 in 10.0 mi West 9.2 mph - N/A   Clear
6:35 AM -9.4 °F -25.6 °F -23.8 °F 49% 30.43 in 10.0 mi West 8.1 mph - N/A   Clear
6:55 AM -9.4 °F -25.6 °F -23.8 °F 49% 30.43 in 10.0 mi West 8.1 mph - N/A   Clear
7:15 AM -9.4 °F -27.9 °F -23.8 °F 49% 30.43 in 10.0 mi West 10.4 mph - N/A   Clear
7:35 AM -9.4 °F -26.8 °F -23.8 °F 49% 30.42 in 10.0 mi West 9.2 mph - N/A   Clear
7:55 AM -9.4 °F -28.9 °F -22.0 °F 54% 30.43 in 10.0 mi West 11.5 mph - N/A   Clear
8:15 AM -9.4 °F -26.8 °F -22.0 °F 54% 30.43 in 10.0 mi West 9.2 mph - N/A   Clear
8:35 AM -7.6 °F -26.6 °F -20.2 °F 54% 30.43 in 10.0 mi West 11.5 mph - N/A   Clear
8:55 AM -5.8 °F -23.4 °F -20.2 °F 50% 30.45 in 10.0 mi WNW 10.4 mph - N/A   Clear
9:15 AM -5.8 °F -24.4 °F -20.2 °F 50% 30.45 in 10.0 mi WNW 11.5 mph - N/A   Clear
9:35 AM -4.0 °F -23.7 °F -18.4 °F 50% 30.45 in 10.0 mi WNW 13.8 mph - N/A   Clear
9:55 AM -2.2 °F -22.9 °F -18.4 °F 46% 30.45 in 10.0 mi NW 16.1 mph 20.7 mph N/A   Clear
10:15 AM -2.2 °F -22.9 °F -18.4 °F 46% 30.45 in 10.0 mi NW 16.1 mph - N/A   Partly Cloudy
10:35 AM -2.2 °F -24.1 °F -18.4 °F 46% 30.45 in 10.0 mi NW 18.4 mph 27.6 mph N/A   Partly Cloudy
10:55 AM -0.4 °F -23.8 °F -16.6 °F 46% 30.45 in 10.0 mi WNW 23.0 mph 27.6 mph N/A   Partly Cloudy
11:15 AM -0.4 °F -22.3 °F -16.6 °F 46% 30.45 in 10.0 mi WNW 19.6 mph 28.8 mph N/A   Partly Cloudy
11:35 AM 1.4 °F -21.4 °F -16.6 °F 43% 30.43 in 10.0 mi NW 23.0 mph - N/A   Partly Cloudy
11:55 AM 1.4 °F -20.5 °F -16.6 °F 43% 30.42 in 10.0 mi WNW 20.7 mph 25.3 mph N/A   Clear
12:15 PM 1.4 °F -20.5 °F -16.6 °F 43% 30.41 in 10.0 mi NW 20.7 mph 25.3 mph N/A   Clear
12:35 PM 3.2 °F -17.1 °F -14.8 °F 43% 30.40 in 10.0 mi WNW 18.4 mph 27.6 mph N/A   Clear
12:55 PM 3.2 °F -15.3 °F -14.8 °F 43% 30.39 in 10.0 mi WNW 15.0 mph 25.3 mph N/A   Clear
1:15 PM 5.0 °F -14.2 °F -14.8 °F 40% 30.38 in 10.0 mi WNW 17.3 mph 26.5 mph N/A   Clear
1:35 PM 5.0 °F -14.7 °F -16.6 °F 36% 30.37 in 10.0 mi WNW 18.4 mph 28.8 mph N/A   Clear
1:55 PM 6.8 °F -13.8 °F -16.6 °F 34% 30.36 in 10.0 mi NW 21.9 mph 27.6 mph N/A   Clear
2:15 PM 6.8 °F -12.9 °F -16.6 °F 34% 30.36 in 10.0 mi NW 19.6 mph 24.2 mph N/A   Clear
2:35 PM 6.8 °F -13.8 °F -14.8 °F 37% 30.36 in 10.0 mi NW 21.9 mph 27.6 mph N/A   Clear
2:55 PM 6.8 °F -14.3 °F -14.8 °F 37% 30.37 in 10.0 mi NW 23.0 mph 26.5 mph N/A   Clear
3:15 PM 6.8 °F -11.8 °F -14.8 °F 37% 30.37 in 10.0 mi WNW 17.3 mph - N/A   Clear
3:35 PM 8.6 °F -9.5 °F -14.8 °F 34% 30.36 in 10.0 mi WNW 17.3 mph 25.3 mph N/A   Clear
3:55 PM 8.6 °F -9.5 °F -14.8 °F 34% 30.35 in 10.0 mi WNW 17.3 mph 23.0 mph N/A   Clear
4:15 PM 8.6 °F -7.7 °F -14.8 °F 34% 30.35 in 10.0 mi WNW 13.8 mph 20.7 mph N/A   Clear
4:35 PM 8.6 °F -7.7 °F -14.8 °F 34% 30.35 in 10.0 mi WNW 13.8 mph 17.3 mph N/A   Clear
4:55 PM 6.8 °F -7.8 °F -14.8 °F 37% 30.34 in 10.0 mi NW 10.4 mph - N/A   Clear
5:15 PM 5.0 °F -6.9 °F -16.6 °F 36% 30.33 in 10.0 mi WNW 6.9 mph - N/A   Clear
5:35 PM 3.2 °F -10.3 °F -14.8 °F 43% 30.33 in 10.0 mi WNW 8.1 mph - N/A   Clear
5:55 PM 3.2 °F -7.8 °F -14.8 °F 43% 30.32 in 10.0 mi WNW 5.8 mph - N/A   Clear
6:15 PM 3.2 °F -6.2 °F -14.8 °F 43% 30.32 in 10.0 mi WNW 4.6 mph - N/A   Clear
6:35 PM 1.4 °F - -18.4 °F 39% 30.31 in 10.0 mi Calm Calm - N/A   Clear
6:55 PM 1.4 °F - -14.8 °F 47% 30.32 in 10.0 mi Calm Calm - N/A   Clear
7:15 PM 1.4 °F -6.2 °F -16.6 °F 43% 30.31 in 10.0 mi SW 3.5 mph - N/A   Clear
7:35 PM 1.4 °F - -13.0 °F 51% 30.31 in 10.0 mi Calm Calm - N/A   Clear
7:55 PM -5.8 °F - -22.0 °F 46% 30.30 in 10.0 mi Calm Calm - N/A   Clear
8:15 PM -4.0 °F - -20.2 °F 46% 30.30 in 10.0 mi Calm Calm - N/A   Clear
8:35 PM -4.0 °F - -16.6 °F 55% 30.29 in 10.0 mi Calm Calm - N/A   Clear
8:55 PM -5.8 °F - -18.4 °F 55% 30.28 in 10.0 mi Calm Calm - N/A   Clear
9:15 PM -7.6 °F - -20.2 °F 54% 30.28 in 10.0 mi Calm Calm - N/A   Clear
9:35 PM -7.6 °F - -18.4 °F 59% 30.27 in 10.0 mi Calm Calm - N/A   Clear
9:55 PM -5.8 °F - -14.8 °F 65% 30.26 in 10.0 mi Calm Calm - N/A   Clear
10:15 PM -5.8 °F - -20.2 °F 50% 30.26 in 10.0 mi Calm Calm - N/A   Clear
10:35 PM -7.6 °F - -18.4 °F 59% 30.25 in 10.0 mi Calm Calm - N/A   Clear
10:55 PM -5.8 °F - -16.6 °F 60% 30.23 in 10.0 mi Calm Calm - N/A   Clear
11:15 PM -5.8 °F - -18.4 °F 55% 30.22 in 10.0 mi Calm Calm - N/A   Clear
11:35 PM -0.4 °F - -9.4 °F 66% 30.21 in 10.0 mi Calm Calm - N/A   Clear
11:55 PM 1.4 °F - -5.8 °F 72% 30.20 in 10.0 mi Calm Calm - N/A   Clear